K8JWL-13 Weather Reports


Display with metric or nautical units.
time (UTC)temp
F
wind
direction
speed
MPH
gust
MPH
rain 1hr
in
rain 24hr
in
rain mn
in
humidity
%
barometer
mb
20260508030746 51 187 0.0 0.0 158.78 0.00 0.00 72 1014.5
20260508030246 51 187 0.0 0.0 158.78 0.00 0.00 71 1014.6
20260508025747 51 187 0.0 0.0 158.78 0.00 0.00 70 1014.7
20260508025246 51 187 0.0 0.0 158.78 0.00 0.00 68 1014.8
20260508024746 51 187 0.0 0.0 158.78 0.00 0.00 68 1014.6
20260508024247 51 312 0.0 0.0 158.78 0.00 0.00 67 1014.5
20260508023746 52 312 0.0 0.0 158.78 0.00 0.00 68 1014.5
20260508023246 52 312 0.0 0.0 158.78 0.00 0.00 67 1014.5
20260508022749 52 312 0.0 0.0 158.78 0.00 0.00 67 1014.4
20260508022246 52 312 0.0 0.0 158.78 0.00 0.00 66 1014.4
20260508021746 52 312 0.0 0.0 158.78 0.00 0.00 66 1014.4
20260508021247 52 312 0.0 0.0 158.78 0.00 0.00 65 1014.4
20260508020746 52 312 0.0 0.0 158.78 0.00 0.00 65 1014.3
20260508020247 53 312 0.0 0.0 158.78 0.00 0.00 65 1014.3
20260508015747 53 312 0.0 0.0 158.78 0.00 0.00 67 1014.3
20260508014746 53 193 2.0 0.0 158.78 0.00 0.00 62 1014.3
20260508014247 54 193 0.0 0.0 158.78 0.00 0.00 65 1014.5
20260508013746 54 270 2.0 0.0 158.78 0.00 0.00 63 1014.4
20260508012747 54 214 0.0 0.0 158.78 0.00 0.00 68 1014.4
20260508012246 54 263 0.0 0.0 158.78 0.00 0.00 62 1014.3
20260508011748 54 294 0.0 0.0 158.78 0.00 0.00 59 1014.2
20260508011247 55 294 0.0 0.0 158.78 0.00 0.00 56 1014.2
20260508010746 55 294 0.0 0.0 158.78 0.00 0.00 57 1014.1
20260508010247 55 294 0.0 0.0 158.78 0.00 0.00 57 1014.2
20260508005747 56 294 0.0 0.0 158.78 0.00 0.00 55 1014.2
20260508005246 56 294 0.0 0.0 158.78 0.00 0.00 53 1014.2
20260508004746 57 294 0.0 0.0 158.78 0.00 0.00 53 1014.2
20260508002746 58 294 0.0 0.0 158.78 0.00 0.00 48 1014.1
20260508002246 58 294 0.0 0.0 158.78 0.00 0.00 49 1014.0
20260508001746 59 294 0.0 0.0 158.78 0.00 0.00 48 1014.0
20260508001246 59 294 0.0 0.0 158.78 0.00 0.00 46 1013.9
20260508000246 60 294 0.0 0.0 158.78 0.00 0.00 43 1013.8
20260507235748 61 294 0.0 0.0 158.78 0.00 0.00 42 1013.8
20260507234746 62 294 0.0 0.0 158.78 0.00 0.00 42 1013.7
20260507234247 62 294 0.0 0.0 158.78 0.00 0.00 39 1013.7
20260507233246 62 248 0.0 0.0 158.78 0.00 0.00 39 1013.7
20260507232746 62 280 1.0 0.0 158.78 0.00 0.00 37 1013.7
20260507232246 63 177 0.0 0.0 158.78 0.00 0.00 36 1013.6
20260507231746 63 269 2.0 0.0 158.78 0.00 0.00 35 1013.7
20260507231247 63 298 4.0 0.0 158.78 0.00 0.00 35 1013.7
20260507230246 64 266 3.0 0.0 158.78 0.00 0.00 36 1013.7
20260507225747 63 11 1.0 0.0 158.78 0.00 0.00 36 1013.7
20260507225246 64 322 6.0 0.0 158.78 0.00 0.00 36 1013.8
20260507224746 63 267 4.0 0.0 158.78 0.00 0.00 35 1013.8
20260507224247 64 248 6.0 0.0 158.78 0.00 0.00 36 1013.9
20260507223746 63 8 1.0 0.0 158.78 0.00 0.00 37 1013.9
20260507223246 63 10 4.0 0.0 158.78 0.00 0.00 36 1014.0
20260507222929 63 271 3.0 0.0 158.78 0.00 0.00 37 1014.0
20260507222747 63 323 5.0 0.0 158.78 0.00 0.00 37 1014.0
20260507222246 63 271 3.0 0.0 158.78 0.00 0.00 37 1014.0
20260507222039 62 290 2.0 0.0 158.78 0.00 0.00 35 1014.1
20260507221247 62 290 2.0 0.0 158.78 0.00 0.00 35 1014.1
20260507220746 62 328 6.0 0.0 158.78 0.00 0.00 35 1014.1
20260507215747 62 311 4.0 0.0 158.78 0.00 0.00 37 1014.0
20260507215606 63 323 7.0 0.0 158.78 0.00 0.00 35 1014.0
20260507215246 63 323 7.0 0.0 158.78 0.00 0.00 35 1014.0
20260507214746 63 276 7.0 0.0 158.78 0.00 0.00 36 1013.9
20260507213746 63 301 12.0 0.0 158.78 0.00 0.00 39 1013.9
20260507213246 62 280 6.0 0.0 158.78 0.00 0.00 39 1013.8
20260507212746 62 14 4.0 0.0 158.78 0.00 0.00 39 1013.9
20260507212246 63 311 6.0 0.0 158.78 0.00 0.00 37 1013.9
20260507211746 63 335 2.0 0.0 158.78 0.00 0.00 36 1013.8
20260507211246 63 210 2.0 0.0 158.78 0.00 0.00 37 1013.8
20260507210746 62 55 3.0 0.0 158.78 0.00 0.00 38 1013.7
20260507210246 62 349 5.0 0.0 158.78 0.00 0.00 38 1013.7
20260507205746 62 239 0.0 0.0 158.78 0.00 0.00 38 1013.7
20260507205246 62 318 3.0 0.0 158.78 0.00 0.00 36 1013.8
20260507204746 62 300 5.0 0.0 158.78 0.00 0.00 36 1013.8
20260507204246 63 246 3.0 0.0 158.78 0.00 0.00 39 1013.8
20260507203746 62 359 2.0 0.0 158.78 0.00 0.00 34 1013.8
20260507203246 62 231 6.0 0.0 158.78 0.00 0.00 38 1013.7
20260507202813 62 352 9.0 0.0 158.78 0.00 0.00 35 1013.7
20260507202752 63 255 3.0 0.0 158.78 0.00 0.00 37 1013.7
20260507202746 62 0 5.0 0.0 158.78 0.00 0.00 39 1013.7
20260507202246 62 352 9.0 0.0 158.78 0.00 0.00 35 1013.7
20260507201746 63 255 3.0 0.0 158.78 0.00 0.00 37 1013.7
20260507201615 63 288 8.0 0.0 158.78 0.00 0.00 40 1013.7
20260507201246 63 288 8.0 0.0 158.78 0.00 0.00 40 1013.7
20260507200746 62 311 4.0 0.0 158.78 0.00 0.00 43 1013.9
20260507195746 60 25 4.0 0.0 158.78 0.00 0.00 38 1013.8
20260507195246 61 6 4.0 0.0 158.78 0.00 0.00 39 1013.8
20260507194746 61 21 1.0 0.0 158.78 0.00 0.00 40 1013.8
20260507193746 61 179 2.0 0.0 158.78 0.00 0.00 38 1014.0
20260507193246 61 113 3.0 0.0 158.78 0.00 0.00 41 1014.1
20260507192746 61 252 14.0 0.0 158.78 0.00 0.00 40 1014.1
20260507192246 61 330 14.0 0.0 158.78 0.00 0.00 39 1014.1
20260507191746 61 34 5.0 0.0 158.78 0.00 0.00 41 1014.1
20260507190746 62 339 7.0 0.0 158.78 0.00 0.00 41 1014.2
20260507190246 62 278 7.0 0.0 158.78 0.00 0.00 41 1014.1
20260507185746 61 298 7.0 0.0 158.78 0.00 0.00 42 1014.2
20260507185246 61 350 6.0 0.0 158.78 0.00 0.00 39 1014.3
20260507184746 61 359 11.0 0.0 158.78 0.00 0.00 39 1014.2
20260507184246 61 330 9.0 0.0 158.78 0.00 0.00 41 1014.2
20260507183247 62 218 3.0 0.0 158.78 0.00 0.00 41 1014.2
20260507182746 61 323 7.0 0.0 158.78 0.00 0.00 43 1014.3
20260507182246 60 301 11.0 0.0 158.78 0.00 0.00 44 1014.3
20260507181746 60 276 3.0 0.0 158.78 0.00 0.00 43 1014.3
20260507181246 59 312 6.0 0.0 158.78 0.00 0.00 45 1014.3
20260507180746 59 305 8.0 0.0 158.78 0.00 0.00 44 1014.4
20260507180247 58 250 1.0 0.0 158.78 0.00 0.00 46 1014.3
20260507175246 57 20 5.0 0.0 158.78 0.00 0.00 47 1014.3
20260507174746 57 319 5.0 0.0 158.78 0.00 0.00 53 1014.4
20260507174246 57 278 4.0 0.0 158.78 0.00 0.00 49 1014.4
20260507173746 57 301 4.0 0.0 158.78 0.00 0.00 49 1014.5
20260507173246 56 277 3.0 0.0 158.78 0.00 0.00 51 1014.6
20260507172246 56 359 4.0 0.0 158.78 0.00 0.00 51 1014.5
20260507171746 56 277 3.0 0.0 158.78 0.00 0.00 54 1014.6
20260507171246 56 345 8.0 0.0 158.78 0.00 0.00 52 1014.8
20260507170746 55 281 7.0 0.0 158.78 0.00 0.00 50 1014.8
20260507170246 55 274 5.0 0.0 158.78 0.00 0.00 52 1014.9
20260507165746 55 329 9.0 0.0 158.78 0.00 0.00 52 1014.8
20260507164746 55 318 5.0 0.0 158.78 0.00 0.00 54 1014.9
20260507164246 55 269 4.0 0.0 158.78 0.00 0.00 52 1015.0
20260507163745 54 217 7.0 0.0 158.78 0.00 0.00 53 1015.0
20260507163245 54 349 1.0 0.0 158.78 0.00 0.00 52 1015.1
20260507162746 54 35 4.0 0.0 158.78 0.00 0.00 55 1015.0
20260507162246 54 336 5.0 0.0 158.78 0.00 0.00 53 1015.0
20260507161746 54 253 13.0 0.0 158.78 0.00 0.00 49 1015.0
20260507160746 53 11 6.0 0.0 158.78 0.00 0.00 54 1014.9
20260507160246 53 352 5.0 0.0 158.78 0.00 0.00 50 1014.9
20260507155246 53 28 3.0 0.0 158.78 0.00 0.00 52 1014.8
20260507154745 53 326 7.0 0.0 158.78 0.00 0.00 51 1014.8
20260507154246 53 17 3.0 0.0 158.78 0.00 0.00 52 1014.6
20260507153746 52 325 4.0 0.0 158.78 0.00 0.00 50 1014.7
20260507153245 52 305 6.0 0.0 158.78 0.00 0.00 51 1014.6
20260507152748 52 274 11.0 0.0 158.78 0.00 0.00 55 1014.6
20260507152246 52 318 5.0 0.0 158.78 0.00 0.00 51 1014.6
20260507151746 52 278 5.0 0.0 158.78 0.00 0.00 50 1014.6
20260507151246 52 277 6.0 0.0 158.78 0.00 0.00 49 1014.7
20260507150746 52 322 5.0 0.0 158.78 0.00 0.00 54 1014.8
20260507150246 51 322 2.0 0.0 158.78 0.00 0.00 52 1014.7
20260507145746 51 325 9.0 0.0 158.78 0.00 0.00 52 1014.7
20260507145246 51 218 7.0 0.0 158.78 0.00 0.00 50 1014.8
20260507144745 51 302 3.0 0.0 158.78 0.00 0.00 52 1014.7
20260507144246 51 321 6.0 0.0 158.78 0.00 0.00 53 1014.6
20260507143745 51 283 6.0 0.0 158.78 0.00 0.00 54 1014.7
20260507143245 51 269 1.0 0.0 158.78 0.00 0.00 54 1014.7
20260507141745 50 345 3.0 0.0 158.78 0.00 0.00 55 1014.9
20260507141246 50 359 4.0 0.0 158.78 0.00 0.00 58 1014.8
20260507140745 50 298 2.0 0.0 158.78 0.00 0.00 58 1014.9
20260507140245 50 280 5.0 0.0 158.78 0.00 0.00 59 1014.9
20260507135746 49 338 4.0 0.0 158.78 0.00 0.00 58 1015.0
20260507135245 49 316 4.0 0.0 158.78 0.00 0.00 60 1014.9
20260507134745 49 3 1.0 0.0 158.78 0.00 0.00 60 1014.9
20260507133746 49 335 5.0 0.0 158.78 0.00 0.00 61 1015.0
20260507133246 49 274 2.0 0.0 158.78 0.00 0.00 62 1015.0
20260507132746 49 340 4.0 0.0 158.78 0.00 0.00 62 1015.0
20260507132245 49 55 2.0 0.0 158.78 0.00 0.00 63 1015.0
20260507131745 48 1 4.0 0.0 158.78 0.00 0.00 63 1015.0
20260507130745 48 55 4.0 0.0 158.78 0.00 0.00 67 1015.0
20260507130427 47 39 4.0 0.0 158.78 0.00 0.00 69 1015.1
20260507130246 48 283 5.0 0.0 158.78 0.00 0.00 66 1015.1
20260507125746 47 39 4.0 0.0 158.78 0.00 0.00 69 1015.1
20260507124246 46 284 2.0 0.0 158.78 0.00 0.00 72 1015.0
20260507123746 46 281 3.0 0.0 158.78 0.00 0.00 73 1014.9
20260507123247 46 297 3.0 0.0 158.78 0.00 0.00 75 1014.9
20260507122746 45 359 0.0 0.0 158.78 0.00 0.00 74 1014.9
20260507122246 45 318 5.0 0.0 158.78 0.00 0.00 76 1014.9
20260507121745 45 311 4.0 0.0 158.78 0.00 0.00 78 1015.1
20260507121247 44 283 5.0 0.0 158.78 0.00 0.00 79 1015.0
20260507120745 44 338 3.0 0.0 158.78 0.00 0.00 80 1015.0
20260507120245 44 280 5.0 0.0 158.78 0.00 0.00 81 1015.0
20260507115245 43 346 0.0 0.0 158.78 0.00 0.00 83 1014.9
20260507114745 43 266 0.0 0.0 158.78 0.00 0.00 84 1014.9
20260507114245 43 17 1.0 0.0 158.78 0.00 0.00 85 1015.0
20260507113745 42 304 3.0 0.0 158.78 0.00 0.00 86 1015.0
20260507113245 42 307 0.0 0.0 158.78 0.00 0.00 87 1015.0
20260507112745 42 314 1.0 0.0 158.78 0.00 0.00 87 1015.0
20260507112245 41 323 1.0 0.0 158.78 0.00 0.00 88 1015.0
20260507111745 41 328 2.0 0.0 158.78 0.00 0.00 88 1014.9
20260507111245 41 231 0.0 0.0 158.78 0.00 0.00 88 1014.9
20260507110745 41 231 0.0 0.0 158.78 0.00 0.00 88 1014.8
20260507110245 41 231 0.0 0.0 158.78 0.00 0.00 88 1014.7
20260507105245 41 231 0.0 0.0 158.78 0.00 0.00 89 1014.5
20260507104745 41 231 0.0 0.0 158.78 0.00 0.00 89 1014.5
20260507104245 41 231 0.0 0.0 158.78 0.00 0.00 88 1014.6
20260507103745 41 231 0.0 0.0 158.78 0.00 0.00 88 1014.5
20260507103245 41 231 0.0 0.0 158.78 0.00 0.00 88 1014.5
20260507102745 41 231 0.0 0.0 158.78 0.00 0.00 88 1014.5
20260507102246 41 231 0.0 0.0 158.78 0.00 0.00 88 1014.5
20260507101745 41 231 0.0 0.0 158.78 0.00 0.00 88 1014.4
20260507101245 41 231 0.0 0.0 158.78 0.00 0.00 88 1014.4
20260507100745 41 231 0.0 0.0 158.78 0.00 0.00 88 1014.3
20260507100245 41 248 1.0 0.0 158.78 0.00 0.00 88 1014.4
20260507095745 41 211 0.0 0.0 158.78 0.00 0.00 88 1014.2
20260507095245 41 211 0.0 0.0 158.78 0.00 0.00 88 1014.2
20260507094745 42 211 0.0 0.0 158.78 0.00 0.00 88 1014.2
20260507094245 42 211 0.0 0.0 158.78 0.00 0.00 88 1014.3
20260507093745 42 211 0.0 0.0 158.78 0.00 0.00 88 1014.2
20260507093245 42 248 0.0 0.0 158.78 0.00 0.00 88 1014.1
20260507092746 42 248 0.0 0.0 158.78 0.00 0.00 88 1014.1
20260507091745 42 248 0.0 0.0 158.78 0.00 0.00 88 1014.2
20260507091245 42 287 1.0 0.0 158.78 0.00 0.00 88 1014.2
20260507090745 42 188 0.0 0.0 158.78 0.00 0.00 88 1014.1
20260507090245 42 188 0.0 0.0 158.78 0.00 0.00 88 1014.2
20260507085745 42 188 0.0 0.0 158.78 0.00 0.00 88 1014.2
20260507085245 42 188 0.0 0.0 158.78 0.00 0.00 88 1014.1
20260507084745 42 188 0.0 0.0 158.78 0.00 0.00 88 1014.1
20260507084245 42 188 0.0 0.0 158.78 0.00 0.00 88 1014.1
20260507083245 42 240 1.0 0.0 158.78 0.00 0.00 88 1014.2
20260507082745 42 93 0.0 0.0 158.78 0.00 0.00 88 1014.2
20260507082245 42 93 1.0 0.0 158.78 0.00 0.00 88 1014.2
20260507081745 42 253 0.0 0.0 158.78 0.00 0.00 88 1014.2
20260507081245 42 277 2.0 0.0 158.78 0.00 0.00 88 1014.3
20260507080745 42 214 0.0 0.0 158.78 0.00 0.00 88 1014.4
20260507080245 42 291 0.0 0.0 158.78 0.00 0.00 88 1014.3
20260507075745 42 291 0.0 0.0 158.78 0.00 0.00 88 1014.3
20260507075245 42 283 0.0 0.0 158.78 0.00 0.00 88 1014.2
20260507074745 42 283 0.0 0.0 158.78 0.00 0.00 88 1014.2
20260507074245 42 283 0.0 0.0 158.78 0.00 0.00 88 1014.2
20260507073745 42 283 0.0 0.0 158.78 0.00 0.00 88 1014.2
20260507073245 42 204 0.0 0.0 158.78 0.00 0.00 88 1014.2
20260507072745 42 204 0.0 0.0 158.78 0.00 0.00 88 1014.2
20260507072245 42 204 0.0 0.0 158.78 0.00 0.00 88 1014.2
20260507071745 42 204 0.0 0.0 158.78 0.00 0.00 88 1014.2
20260507071245 43 204 0.0 0.0 158.78 0.00 0.00 88 1014.3
20260507070745 43 204 0.0 0.0 158.78 0.00 0.00 88 1014.2
20260507070245 43 204 0.0 0.0 158.78 0.00 0.00 88 1014.2
20260507065745 43 204 0.0 0.0 158.78 0.00 0.00 88 1014.3
20260507065245 43 17 0.0 0.0 158.78 0.00 0.00 87 1014.3
20260507064747 43 17 0.0 0.0 158.78 0.00 0.00 87 1014.3
20260507064322 43 17 0.0 0.0 158.78 0.00 0.00 87 1014.3
20260507064245 43 17 0.0 0.0 158.78 0.00 0.00 87 1014.3
20260507063745 43 17 0.0 0.0 158.78 0.00 0.00 87 1014.4
20260507063245 43 17 0.0 0.0 158.78 0.00 0.00 87 1014.3
20260507062745 43 17 0.0 0.0 158.78 0.00 0.00 87 1014.4
20260507062245 43 17 0.0 0.0 158.78 0.00 0.00 87 1014.4
20260507061745 43 17 0.0 0.0 158.78 0.00 0.00 87 1014.5
20260507061245 43 17 0.0 0.0 158.78 0.00 0.00 87 1014.5
20260507060745 43 17 0.0 0.0 158.78 0.00 0.00 87 1014.5
20260507060245 43 17 0.0 0.0 158.78 0.00 0.00 86 1014.4
20260507055745 43 17 0.0 0.0 158.78 0.00 0.00 86 1014.5
20260507055245 43 17 0.0 0.0 158.78 0.00 0.00 86 1014.6
20260507054745 43 17 0.0 0.0 158.78 0.00 0.00 86 1014.6
20260507054245 43 17 0.0 0.0 158.78 0.00 0.00 86 1014.7
20260507053745 43 17 0.0 0.0 158.78 0.00 0.00 86 1014.7
20260507053245 43 17 0.0 0.0 158.78 0.00 0.00 86 1014.8
20260507052745 43 17 0.0 0.0 158.78 0.00 0.00 85 1014.8
20260507052245 44 17 0.0 0.0 158.78 0.00 0.00 86 1014.8
20260507051745 44 17 0.0 0.0 158.78 0.00 0.00 85 1014.8
20260507051245 44 17 0.0 0.0 158.78 0.00 0.00 85 1014.8
20260507050744 44 17 0.0 0.0 158.78 0.00 0.00 85 1014.7
20260507050244 44 17 0.0 0.0 158.78 0.00 0.00 85 1014.8
20260507045745 44 17 0.0 0.0 158.78 0.00 0.00 85 1014.8
20260507045244 44 17 0.0 0.0 158.78 0.00 0.00 85 1014.8
20260507044744 44 17 0.0 0.0 158.78 0.00 0.00 85 1014.8
20260507044245 44 17 0.0 0.0 158.78 0.00 0.00 85 1014.8
20260507043744 44 17 0.0 0.0 158.78 0.00 0.00 85 1014.8
20260507043244 45 17 0.0 0.0 158.78 0.00 0.28 84 1014.7
20260507042745 45 17 0.0 0.0 158.78 0.00 0.28 84 1014.7
20260507042244 45 17 0.0 0.0 158.78 0.00 0.28 84 1014.7
20260507041744 45 17 0.0 0.0 158.78 0.00 0.28 84 1014.8
20260507041245 45 17 0.0 0.0 158.78 0.00 0.28 83 1014.8
20260507040745 45 17 0.0 0.0 158.78 0.00 0.28 83 1014.7
20260507040244 45 17 0.0 0.0 158.78 0.00 0.28 83 1014.8
20260507035745 46 17 0.0 0.0 158.78 0.00 0.28 83 1014.8
20260507035244 46 17 0.0 0.0 158.78 0.00 0.28 83 1014.8
20260507034744 46 17 0.0 0.0 158.78 0.00 0.28 82 1014.9
20260507034245 46 17 0.0 0.0 158.78 0.00 0.28 82 1014.8
20260507033745 46 17 0.0 0.0 158.78 0.00 0.28 82 1014.9
20260507033244 46 17 0.0 0.0 158.78 0.00 0.28 82 1015.0
20260507032745 46 17 0.0 0.0 158.78 0.00 0.28 82 1015.0
20260507032244 47 17 0.0 0.0 158.78 0.00 0.28 82 1015.0
20260507031744 47 17 0.0 0.0 158.78 0.00 0.28 81 1015.0
20260507031245 47 17 0.0 0.0 158.78 0.00 0.28 81 1015.1